SCP
0 0 0 0 0 0 0 0 0 0 0 0 0 0 1 1 1 1 1 1 1 1 1 1 1 1 1 1 2 2 2 2 2 1 1 1 1 1 1 1 1 1 1 0 0 0 0 0 0
0 0 0 0 0 0 0 0 0 0 0 0 1 1 1 1 1 1 1 1 1 1 1 1 1 1 1 1 2 2 2 2 2 1 1 1 1 1 1 1 1 1 0 0 0 0 0 0 0
0 0 0 0 0 0 0 0 0 0 1 1 1 1 1 2 2 2 2 1 1 1 1 1 1 1 2 2 2 2 2 2 1 1 1 1 1 1 1 1 1 1 0 0 1 1 1 0 0
0 0 0 0 0 0 0 0 0 0 1 1 1 1 1 2 2 2 2 1 1 1 1 1 1 2 2 2 2 2 2 2 1 1 1 1 1 1 1 1 1 1 1 1 1 1 1 1 1
0 0 0 0 0 0 0 0 0 1 1 1 1 1 1 1 2 2 2 1 1 1 1 1 1 2 2 2 2 2 2 2 2 2 1 1 1 1 2 1 1 1 1 1 1 1 1 1 1
0 0 0 0 0 0 0 1 1 1 1 1 2 2 1 1 1 2 2 1 1 2 2 2 2 2 2 2 2 2 2 2 3 2 2 2 2 2 2 1 1 1 1 1 1 1 1 1 1
0 0 0 0 0 0 1 1 1 1 1 1 2 2 2 2 2 2 2 1 1 2 2 2 2 2 2 2 2 2 2 3 3 3 3 2 2 2 1 1 1 1 1 1 1 1 1 1 1
0 0 0 0 0 1 1 2 2 2 2 2 2 2 2 2 2 2 2 2 2 2 2 2 2 2 2 2 2 2 2 3 3 3 2 2 2 2 1 1 1 2 2 2 2 1 1 1 1
0 0 0 0 0 1 1 2 2 2 2 2 2 2 2 2 3 3 3 3 3 3 3 2 2 2 2 2 2 2 2 2 3 3 2 2 2 2 1 1 1 1 1 2 2 2 1 1 1
0 0 0 0 0 1 1 1 2 2 2 2 2 2 2 3 3 3 4 4 4 3 3 3 3 3 2 2 2 2 3 3 2 2 2 2 2 2 1 1 1 1 1 1 1 1 1 1 1
0 0 0 0 0 0 1 1 2 2 2 2 2 3 3 3 3 3 3 3 3 3 3 3 3 2 2 2 3 3 3 3 2 2 2 2 2 2 2 2 1 1 1 1 1 1 1 1 1
0 0 0 0 0 0 1 1 2 2 3 3 3 3 3 3 3 3 3 3 3 2 2 3 3 3 3 3 3 3 3 3 3 2 2 2 2 2 2 2 2 1 1 1 2 2 1 1 1
0 0 0 0 0 1 1 1 2 3 3 3 3 3 3 3 3 3 2 2 2 2 2 2 3 3 3 3 3 3 3 3 3 2 2 2 2 2 2 2 2 1 1 1 2 2 2 2 2
0 1 1 1 1 1 1 1 2 3 3 3 3 3 3 2 2 2 2 2 2 2 2 2 2 3 3 3 2 2 3 3 3 2 2 2 3 2 2 2 1 1 1 1 1 1 2 2 2
1 1 1 1 1 1 1 1 2 2 2 2 2 2 2 2 2 2 2 2 2 2 2 2 2 2 2 2 2 2 2 2 2 2 2 3 3 2 2 2 2 2 1 1 1 1 1 2 2
0 0 1 1 1 1 1 1 2 2 2 2 2 2 2 2 2 2 2 1 2 2 2 2 2 2 3 3 3 2 2 2 2 2 2 2 2 2 2 2 2 2 2 2 1 1 1 1 1
0 0 0 0 0 1 1 1 2 2 2 2 2 2 2 2 2 2 2 2 2 2 3 3 3 3 3 3 3 2 2 2 2 2 2 2 2 1 1 1 1 2 2 2 2 2 2 1 1
0 0 0 0 0 1 1 1 2 2 2 2 2 2 2 3 3 3 2 2 2 3 3 3 3 3 4 3 3 3 3 3 3 3 3 2 2 1 1 1 1 2 2 2 2 2 2 1 1
0 0 0 0 1 1 1 2 2 2 2 2 2 2 2 3 4 4 3 2 2 3 3 4 4 4 4 4 3 3 3 4 4 4 3 3 2 2 2 2 2 2 2 2 2 2 2 2 2
0 0 0 1 1 1 2 2 2 2 2 2 2 2 3 4 4 3 3 3 3 3 3 4 4 4 3 3 3 3 4 4 5 4 4 3 2 2 2 2 2 3 3 2 2 1 1 2 2
0 0 0 1 1 1 2 2 2 2 2 2 2 2 3 4 3 3 3 3 3 3 3 3 3 3 3 2 2 4 5 5 5 4 3 3 2 2 2 3 3 3 3 2 2 1 1 1 1
0 0 0 1 1 1 1 1 1 2 2 2 2 3 3 4 3 3 3 3 4 4 4 3 3 3 2 2 2 3 4 4 4 3 2 2 2 2 3 4 4 4 3 2 2 1 1 1 1
0 0 0 0 0 1 1 1 1 1 2 2 2 3 4 4 3 3 3 4 4 5 4 3 3 2 2 2 2 2 3 3 3 2 1 1 1 2 3 5 5 5 4 2 2 2 1 1 1
0 0 0 0 0 0 0 0 1 1 2 2 2 3 4 4 4 4 3 3 4 4 4 3 2 2 2 2 2 2 2 3 2 1 1 1 1 2 4 5 7 6 5 3 2 2 2 1 1
0 0 0 0 0 0 0 1 1 2 2 2 2 3 3 4 4 4 4 3 3 3 3 2 2 2 2 2 2 1 1 2 2 1 1 1 1 2 3 4 5 5 4 2 2 2 2 2 2
0 0 0 0 0 0 0 1 2 2 2 2 3 3 3 4 4 4 3 3 3 2 2 2 2 2 2 2 1 1 1 1 1 1 1 0 1 1 2 2 2 2 1 1 2 2 2 2 2
0 0 0 0 0 0 1 1 2 2 2 2 2 2 2 3 4 3 3 3 3 2 2 2 1 1 1 1 1 1 1 1 1 1 0 0 0 0 0 0 0 0 0 0 1 1 2 2 2
0 0 0 0 0 0 0 1 1 1 2 2 1 1 2 3 4 3 3 3 2 2 2 1 1 1 1 1 1 1 1 1 0 0 0 0 0 0 0 0 0 0 0 0 0 1 1 1 2
0 0 0 0 0 0 0 1 1 1 1 1 1 1 2 3 4 3 3 2 2 2 1 1 1 1 0 0 0 0 0 0 0 0 0 0 0 0 0 0 0 0 0 0 0 0 1 1 1
0 0 0 0 0 0 0 1 1 1 1 1 1 1 2 4 4 3 2 2 2 2 2 1 1 0 0 0 0 0 0 0 0 0 0 0 0 0 0 0 0 0 0 0 0 0 0 1 1
Wind_Speed
8 7 6 6 8 7 4 4 2 3 4 4 4 3 5 7 6 7 7 11 13 14 15 14 10 10 11 13 14 14 15 15 15 15 14 13 12 11 10 10 9 9 9 9 9 8 8 8 8
5 5 7 7 8 8 6 4 4 5 5 6 6 5 6 7 7 8 8 11 14 14 14 13 12 10 12 12 13 14 15 15 15 14 14 13 12 11 10 10 9 8 8 8 8 8 8 8 8
6 7 7 6 7 5 7 6 5 6 6 5 5 5 5 6 5 6 9 14 14 13 13 14 13 12 12 12 12 13 14 15 14 14 13 12 11 10 9 9 9 8 8 8 8 8 8 8 7
6 7 6 8 7 2 4 5 4 6 7 5 7 8 7 6 4 7 12 14 14 13 13 15 12 12 12 12 12 13 13 13 13 13 12 11 10 9 9 9 8 8 8 7 8 8 7 7 7
7 7 8 8 7 5 3 2 3 5 6 7 7 9 8 6 8 12 13 13 13 13 13 15 12 12 12 12 12 12 12 12 11 11 10 9 8 8 8 8 8 8 7 7 7 7 7 7 7
7 7 8 9 8 6 4 2 4 6 8 8 8 9 7 6 9 11 12 12 12 12 13 14 12 12 11 11 11 11 10 10 10 9 9 8 7 7 7 7 7 6 6 7 7 6 6 6 6
7 7 7 7 8 8 5 3 3 6 8 6 6 9 8 8 9 11 12 11 11 11 11 12 12 12 12 11 10 11 9 9 8 8 7 7 6 6 6 6 5 5 5 6 6 6 6 6 6
5 6 7 7 8 8 6 5 4 4 7 5 3 7 9 10 11 11 11 11 10 9 9 10 10 10 10 11 10 10 9 8 8 7 7 6 7 7 6 7 6 4 4 5 5 5 6 6 6
7 7 7 7 6 8 6 7 6 4 7 6 5 7 13 15 14 13 11 10 9 8 7 7 7 7 7 8 10 9 9 8 7 7 7 6 6 6 7 4 5 4 4 4 4 5 5 6 8
7 6 6 4 3 6 7 6 6 7 9 9 10 13 16 15 13 12 11 10 9 8 6 5 6 5 5 5 6 5 5 6 4 4 4 4 2 2 2 6 3 3 4 5 5 5 7 10 8
5 3 6 5 4 4 7 7 4 6 7 8 12 15 15 14 12 11 10 8 7 7 5 4 4 4 4 4 3 2 2 3 3 3 2 1 2 2 2 2 4 5 6 6 6 8 6 6 4
4 3 3 4 4 4 5 7 6 5 7 9 12 15 15 13 11 10 9 8 7 6 5 5 4 4 3 3 3 2 2 2 1 2 1 1 1 1 1 1 2 2 2 2 3 3 4 5 5
6 5 4 5 5 5 7 8 8 8 10 12 13 14 13 12 10 9 9 7 7 6 5 5 4 4 3 3 2 2 2 2 2 1 1 1 1 1 1 1 1 2 2 2 3 3 4 5 5
5 6 6 6 7 7 10 10 7 8 10 12 13 13 11 11 11 9 8 7 7 6 5 5 5 5 4 3 2 2 2 2 1 1 2 2 2 1 1 1 1 2 3 3 3 4 4 4 4
6 8 9 7 8 9 10 9 8 9 11 12 12 12 11 10 9 9 7 7 6 6 6 5 5 5 4 3 3 2 2 2 2 2 3 3 2 2 2 2 1 2 2 3 3 3 3 4 4
9 11 11 8 7 7 9 10 10 10 11 11 11 11 10 9 9 8 8 7 6 6 6 5 4 4 4 3 3 2 2 3 2 2 2 3 3 2 2 2 1 2 3 2 2 3 3 3 3
10 10 11 11 6 7 7 9 11 9 11 11 10 10 10 9 9 8 8 7 6 5 5 5 4 4 4 3 3 3 3 3 2 3 3 3 3 3 2 2 2 3 2 3 3 2 3 3 3
9 9 9 9 8 8 7 9 11 10 10 10 10 10 9 9 8 8 8 7 6 6 6 5 5 5 3 2 2 2 3 3 3 3 4 4 3 3 3 1 3 3 2 2 2 3 2 3 3
4 6 8 7 6 7 7 9 11 10 10 10 10 9 9 9 9 8 7 7 6 6 6 6 6 5 3 2 1 2 2 2 3 3 4 4 4 4 3 3 2 3 2 3 3 3 3 3 3
6 7 8 8 5 4 8 8 9 9 10 9 10 9 10 10 9 8 7 7 7 6 6 6 6 5 4 3 2 2 2 2 3 3 3 4 4 4 3 4 3 3 2 2 3 3 3 3 2
7 7 8 9 8 6 8 9 10 9 8 8 9 9 9 10 9 8 7 6 6 6 6 5 6 5 5 3 2 2 2 2 2 3 3 4 4 4 4 4 4 4 3 3 3 4 4 3 3
6 4 6 10 10 8 10 7 11 12 10 10 9 9 9 9 9 8 7 7 6 6 6 6 6 6 5 5 4 4 3 3 3 3 3 4 5 5 5 5 4 4 3 3 3 3 4 4 4
2 4 7 8 7 5 8 7 7 12 12 12 11 10 10 10 9 8 7 7 6 6 6 6 6 6 6 6 5 4 4 4 3 3 4 4 4 5 5 5 5 4 3 4 4 3 4 4 4
7 7 6 7 8 8 5 7 4 7 8 9 11 11 11 10 10 9 8 7 6 6 5 5 6 6 6 6 6 6 5 5 4 4 4 3 3 4 6 5 5 4 4 4 4 4 3 3 4
7 7 6 8 8 5 4 5 2 4 2 5 9 11 11 10 10 9 8 7 7 6 5 5 6 6 6 6 6 6 5 4 5 4 4 4 4 4 6 6 5 5 5 5 4 3 4 4 4
6 8 7 6 5 2 5 4 5 5 3 4 8 11 11 11 9 9 7 7 7 6 5 5 6 6 5 6 6 6 4 4 4 5 4 5 4 5 6 5 5 6 6 5 4 3 3 3 3
5 6 6 8 7 6 3 3 5 4 5 6 9 10 11 11 10 9 8 7 7 6 6 5 5 5 5 5 5 5 5 5 5 4 4 5 5 4 6 6 6 6 6 6 5 3 4 3 3
4 2 4 7 6 6 4 4 2 4 5 7 8 9 10 11 10 9 7 7 7 7 6 5 5 5 5 5 5 5 5 5 5 5 7 6 6 6 6 6 6 6 5 5 5 4 4 4 3
3 4 5 6 7 8 5 2 6 3 4 7 8 9 10 11 10 9 8 7 7 7 6 5 5 5 5 5 5 6 6 6 6 6 6 6 6 5 5 6 6 5 6 6 5 5 5 5 4
3 3 5 6 5 6 6 3 6 3 4 6 8 9 9 10 9 9 8 8 7 7 6 5 5 5 5 5 5 6 6 6 6 6 6 6 5 5 5 5 6 6 7 6 6 6 6 5 5
Wind_Direction
231 231 234 233 230 222 187 132 131 115 107 81 81 81 68 42 20 64 109 140 134 135 135 142 135 131 130 131 132 134 136 137 138 139 140 140 139 137 135 134 131 128 127 126 125 125 126 126 127
229 220 227 232 238 203 157 133 130 84 94 114 99 92 87 72 59 90 122 133 137 134 140 142 134 132 130 130 131 133 137 138 138 139 141 141 141 140 138 137 134 133 133 132 132 133 133 134 135
215 231 236 226 231 218 130 119 103 96 119 135 110 78 64 62 75 100 124 137 135 134 138 131 139 136 133 133 133 135 137 138 139 141 142 143 142 141 140 140 139 140 141 140 139 140 142 143 145
208 208 225 230 196 129 96 108 111 135 126 127 126 101 83 38 60 111 131 138 136 138 140 133 142 138 137 136 135 135 136 138 139 141 141 142 142 142 143 144 144 145 145 143 144 146 150 153 154
228 222 209 204 176 124 112 93 162 156 135 133 137 112 89 60 88 117 135 140 140 137 135 134 139 138 139 137 134 134 135 137 139 140 139 140 143 145 147 149 150 151 150 149 151 154 157 161 165
208 221 210 187 155 140 129 130 182 152 134 131 133 115 87 98 113 127 136 138 136 133 130 130 137 138 138 137 135 132 133 134 134 136 139 143 146 149 151 153 154 156 156 157 160 162 164 167 173
226 219 208 172 152 142 107 114 154 151 134 123 134 117 112 121 123 129 132 132 131 131 133 140 146 146 143 137 135 135 134 134 132 132 135 141 149 157 159 158 159 162 166 169 171 171 175 179 184
252 222 187 171 162 127 114 122 108 118 105 95 128 134 135 139 135 128 127 128 128 129 132 138 144 148 153 149 140 136 136 135 134 137 143 152 167 174 170 183 161 172 185 190 190 189 191 195 198
242 224 178 160 154 123 129 134 107 106 111 94 70 81 118 136 138 131 128 126 126 125 128 132 134 140 150 145 138 147 145 142 152 154 154 185 197 184 187 153 139 186 203 204 205 206 205 209 200
229 202 133 109 108 118 121 120 127 146 129 117 110 105 122 137 137 133 132 134 134 133 130 123 129 137 139 132 137 151 153 146 172 148 165 203 189 218 225 120 161 197 206 209 207 211 214 227 211
214 150 116 124 112 124 122 115 131 150 133 132 136 133 134 135 135 133 129 128 128 124 113 111 123 134 132 126 131 128 126 134 154 137 171 209 215 209 221 190 182 199 209 219 195 212 226 230 238
171 118 125 115 125 141 122 120 104 80 94 113 126 133 135 135 132 129 122 119 115 104 100 96 106 111 108 110 120 129 123 129 130 131 195 193 225 245 263 271 280 259 250 263 258 258 252 252 244
170 137 122 122 131 122 120 113 102 93 100 111 122 129 132 128 122 115 112 110 104 93 89 85 80 86 93 99 108 110 101 98 104 109 99 334 268 302 327 317 315 296 295 269 265 267 268 265 257
140 136 139 139 131 137 131 123 118 112 118 119 123 126 125 121 119 112 105 100 96 88 82 78 75 75 76 82 80 80 83 81 73 65 54 22 359 358 320 288 301 301 292 298 292 281 273 266 262
155 154 147 144 147 145 142 121 115 129 132 126 124 122 120 115 113 107 101 96 95 91 80 72 72 71 69 69 68 72 76 86 78 73 64 43 17 346 308 307 299 324 304 288 277 278 272 264 263
180 183 160 141 158 168 208 141 129 145 143 134 131 127 122 113 110 104 102 95 88 85 79 67 66 79 76 70 66 66 54 65 65 55 60 52 31 351 312 312 328 329 300 295 288 283 278 275 278
190 189 156 145 166 177 210 140 144 157 152 147 144 138 130 121 109 101 95 90 83 78 76 71 60 65 71 75 80 86 74 59 61 53 42 42 31 357 328 342 355 322 319 312 304 317 296 286 281
175 170 167 159 157 192 188 143 151 166 164 159 153 144 137 128 116 106 97 91 86 80 74 68 66 52 53 79 99 102 89 75 59 52 37 26 20 3 340 358 0 332 334 330 331 316 299 294 288
172 179 163 137 145 192 175 157 158 166 172 166 160 154 146 132 117 110 103 96 87 77 73 65 54 43 36 46 61 76 74 68 63 55 38 27 16 11 356 350 2 340 353 344 331 316 290 282 289
190 182 156 139 147 192 166 164 164 176 183 176 167 161 154 138 128 119 110 100 89 79 72 69 60 50 37 36 45 61 68 75 63 50 46 26 21 11 11 0 347 356 338 352 348 325 308 301 288
197 202 172 154 151 169 171 179 183 180 184 177 170 164 160 151 144 133 120 105 93 84 76 68 61 58 47 38 73 97 110 104 71 50 46 31 25 26 12 4 355 345 337 359 340 319 303 300 289
184 187 182 169 189 177 208 213 182 180 183 182 174 169 162 154 148 141 131 116 101 91 84 73 64 58 53 49 57 67 63 60 46 31 37 31 32 23 12 5 3 350 350 347 333 339 311 299 295
102 150 183 196 223 207 208 245 161 174 193 188 180 172 160 154 151 144 133 122 109 97 85 72 66 59 54 52 58 60 60 61 59 49 48 27 37 27 16 7 360 354 352 352 340 335 327 313 303
138 156 169 210 225 229 212 247 175 173 201 184 175 169 157 149 146 142 134 128 114 103 92 83 76 67 60 59 61 59 59 56 53 41 35 29 37 29 23 12 4 355 355 352 345 337 342 333 318
201 208 212 215 222 224 167 242 75 98 146 177 169 161 154 149 146 146 144 137 120 108 96 85 79 74 66 63 60 59 59 66 62 37 36 18 21 24 21 12 7 3 358 353 347 344 349 349 332
219 252 267 271 264 208 177 228 86 78 98 137 145 147 148 149 146 143 143 137 127 116 103 93 86 78 70 66 62 59 51 49 56 45 30 30 21 22 11 9 13 8 360 355 350 344 354 355 334
223 243 304 283 276 270 212 146 128 108 117 123 134 145 151 150 145 144 142 132 125 116 106 98 91 85 73 66 67 68 57 49 52 48 39 42 32 24 18 10 15 14 4 356 347 0 358 349 329
318 288 248 264 271 267 232 208 154 144 141 140 148 152 149 145 146 143 134 127 119 114 110 103 95 90 81 73 65 70 65 58 55 48 46 41 35 29 19 18 17 13 8 6 356 4 8 357 355
198 213 258 274 291 286 275 85 58 107 142 156 154 152 150 149 148 141 136 133 128 124 121 116 109 99 87 77 69 66 64 60 57 52 47 44 37 27 20 20 20 16 18 15 10 12 5 7 8
290 289 260 267 262 274 289 80 60 83 127 139 141 142 144 147 146 143 141 141 138 130 122 113 105 98 90 83 79 73 66 59 55 52 46 45 39 29 27 23 25 25 25 18 15 13 14 10 13